Regional Weather Roundup
Issued by NWS Cleveland, OH

Home | Current Version | Previous Version | Graphics & Text | Print | Product List | Glossary On
Versions: 1 2 3 4 5 6 7 8 9 10 11 12 13 14 15 16 17 18 19 20 21 22 23 24 25 26 27 28 29 30 31 32 33 34 35 36 37 38 39 40 41 42 43 44 45 46 47 48 49 50
412
ASUS41 KCLE 021010
RWRCLE
OHIO REGIONAL WEATHER ROUNDUP
NATIONAL WEATHER SERVICE WILMINGTON, OH
600 AM EDT MON MAY 02 2016

NOTE: "FAIR" INDICATES FEW OR NO CLOUDS BELOW 12,000 FEET WITH NO
SIGNIFICANT WEATHER AND/OR OBSTRUCTIONS TO VISIBILITY.

OHZ001>008-015>018-024>027-034-035-043-044-021100-
   NORTHWEST OHIO

CITY           SKY/WX    TMP DP  RH WIND       PRES   REMARKS
DEFIANCE       CLOUDY    48  45  89 N9        29.95R
FINDLAY        CLOUDY    50  44  80 NE10      29.89F
TOLEDO EXPRESS CLOUDY    47  46  97 NE13      29.94R
TOLEDO EXEC    CLOUDY    48  45  89 NE6       29.94S
LIMA           CLOUDY    49  48  97 NE8       29.90R
$$

OHZ009>014-019>023-028>033-038-089-021100-
   NORTHEAST OHIO

CITY           SKY/WX    TMP DP  RH WIND       PRES   REMARKS
CLE-HOPKINS    CLOUDY    47  45  93 N7        29.92F
CLE-LAKEFRONT  CLOUDY    46  44  93 NE9       29.89F
CUY CO. ARPT   NOT AVBL
LORAIN-ELYRIA  CLOUDY    46  43  89 NE9       29.90S
ASHTABULA      LGT RAIN  44  43  96 N6        29.92R
AKRON-CANTON   CLOUDY    50  47  89 N7        29.88S
WOOSTER        MOCLDY    47  46  97 E5        29.88S
MANSFIELD      FAIR      46  46 100 NE3       29.87F
YOUNGSTOWN     LGT RAIN  46  45  96 NW12      29.90R FOG
$$

OHZ042-051>053-060>062-070>072-077>081-021100-
  SOUTHWEST OHIO

CITY           SKY/WX    TMP DP  RH WIND       PRES   REMARKS
CINC-COVINGTON CLOUDY    58  57  97 CALM      29.91S
CINC-LUNKEN    MOCLDY    60  59  96 NW8       29.92R
HAMILTON       CLOUDY    60  58  92 W3        29.91S
DAYTON         FOG       53  53 100 CALM      29.91S VSB 3/4
WRIGHT-PAT AFB CLOUDY    56  56 100 N7        29.90R
DAYTON GENERAL CLOUDY    60  56  86 W5        29.89S
WILMINGTON     MOCLDY    58  58 100 W3        29.90R
$$

OHZ036-037-039>041-045>050-054>059-063>069-073>076-082>088-021100-
  CENTRAL AND SOUTHEAST OHIO

CITY           SKY/WX    TMP DP  RH WIND       PRES   REMARKS
COLUMBUS       CLOUDY    54  54 100 N9        29.89R
OSU AIRPORT    CLOUDY    54  52  93 N6        29.90R
BOLTON FIELD   CLOUDY    56  55  98 N6        29.90S
RICKENBACK AFB CLOUDY    58  58 100 CALM      29.89R FOG
NEWARK         CLOUDY    58  56  93 W5        29.89R
MARION         MOCLDY    49  47  93 E3        29.88F
LANCASTER      MOCLDY    58  57  97 CALM      29.90R FOG
ZANESVILLE     FAIR      59  56  89 CALM      29.88S
NEW PHILLY     LGT RAIN  55  54  96 CALM      29.88R
$$




USA.gov is the U.S. government's official web portal to all federal, state and local government web resources and services.